User: anonymous   Login
Location: *
(90.0000°N, 180.0000°W)
Time: 02:32:23
(UTC+01:00)
Language:

Cosmos 1825 - Orbit

View from above orbital plane
View from above orbital plane
View from above satellite
View from above satellite

Ground track
Ground track

The orbit data is extracted from the following two-line orbital elements,

1 17566U 87024A   14329.54314382  .00005511  00000-0  30445-3 0  1549
2 17566 082.5053 134.3910 0003900 204.1817 155.9232 15.13718822512144
Epoch (UTC): 25 November 2014 13:02:07
Eccentricity: 0.0003900
inclination: 82.5053°
perigee height: 522 km
apogee height: 527 km
right ascension of ascending node: 134.3910°
argument of perigee: 204.1817°
revolutions per day: 15.13718822
mean anomaly at epoch: 155.9232°
orbit number at epoch: 51214

The dashed part of the orbit path shows where the satellite is in the earth's shadow,  

DLR